EW4696 Weather Reports


Display with metric or nautical units.
time (UTC)temp
F
wind
direction
speed
MPH
gust
MPH
rain 1hr
in
rain 24hr
in
rain mn
in
humidity
%
barometer
mb
20260906234504 91 189 1.0 5.0 0.00 0.00 0.00 57 1012.1
20260906234004 91 0 0.0 3.0 0.00 0.00 0.00 57 1012.0
20260906233504 92 0 0.0 3.0 0.00 0.00 0.00 57 1012.1
20260906233004 92 0 0.0 2.0 0.00 0.00 0.00 57 1012.1
20260906232504 92 0 0.0 5.0 0.00 0.00 0.00 56 1012.1
20260906232004 92 186 1.0 5.0 0.00 0.00 0.00 56 1012.1
20260906231504 93 166 1.0 5.0 0.00 0.00 0.00 55 1012.1
20260906231004 93 130 1.0 5.0 0.00 0.00 0.00 54 1012.1
20260906230004 94 112 1.0 3.0 0.00 0.00 0.00 51 1012.3
20260906225504 94 111 1.0 4.0 0.00 0.00 0.00 51 1012.4
20260906225005 94 153 1.0 6.0 0.00 0.00 0.00 51 1012.4
20260906224004 94 162 1.0 5.0 0.00 0.00 0.00 51 1012.4
20260906223504 94 145 2.0 8.0 0.00 0.00 0.00 51 1012.3
20260906222504 95 119 1.0 4.0 0.00 0.00 0.00 51 1012.3
20260906221504 94 103 2.0 9.0 0.00 0.00 0.00 51 1012.4
20260906221003 94 109 2.0 9.0 0.00 0.00 0.00 50 1012.6
20260906220504 95 106 2.0 6.0 0.00 0.00 0.00 50 1012.5
20260906220004 96 115 1.0 4.0 0.00 0.00 0.00 49 1012.5
20260906215505 96 117 2.0 4.0 0.00 0.00 0.00 50 1012.5
20260906215004 96 99 2.0 6.0 0.00 0.00 0.00 49 1012.6
20260906214504 96 101 2.0 6.0 0.00 0.00 0.00 49 1012.5
20260906214004 96 111 1.0 6.0 0.00 0.00 0.00 49 1012.5
20260906213504 96 97 1.0 6.0 0.00 0.00 0.00 50 1012.6
20260906213004 95 107 2.0 6.0 0.00 0.00 0.00 50 1012.6
20260906212504 96 141 2.0 6.0 0.00 0.00 0.00 49 1012.7
20260906212003 96 171 1.0 6.0 0.00 0.00 0.00 49 1012.6
20260906211504 97 148 1.0 5.0 0.00 0.00 0.00 49 1012.8
20260906211004 97 143 1.0 4.0 0.00 0.00 0.00 48 1012.8
20260906210504 98 168 1.0 4.0 0.00 0.00 0.00 47 1012.8
20260906210004 98 200 1.0 4.0 0.00 0.00 0.00 45 1012.9
20260906205504 98 202 1.0 5.0 0.00 0.00 0.00 47 1013.0
20260906205004 98 150 1.0 5.0 0.00 0.00 0.00 46 1013.1
20260906204504 97 96 1.0 4.0 0.00 0.00 0.00 46 1013.1
20260906204004 97 89 1.0 5.0 0.00 0.00 0.00 47 1013.2
20260906203504 96 123 1.0 5.0 0.00 0.00 0.00 49 1013.2
20260906202504 95 179 1.0 4.0 0.00 0.00 0.00 48 1013.3
20260906201504 95 178 1.0 3.0 0.00 0.00 0.00 47 1013.4
20260906200504 96 177 1.0 3.0 0.00 0.00 0.00 46 1013.5
20260906200004 97 177 1.0 2.0 0.00 0.00 0.00 47 1013.6
20260906195004 96 151 1.0 4.0 0.00 0.00 0.00 47 1013.7
20260906194504 96 119 1.0 2.0 0.00 0.00 0.00 47 1013.7
20260906194004 95 119 1.0 4.0 0.00 0.00 0.00 47 1013.7
20260906193504 95 118 1.0 4.0 0.00 0.00 0.00 50 1013.9
20260906192005 95 119 1.0 3.0 0.00 0.00 0.00 48 1013.9
20260906191504 95 118 1.0 3.0 0.00 0.00 0.00 49 1014.1
20260906190504 94 115 1.0 4.0 0.00 0.00 0.00 54 1014.1
20260906190004 93 113 1.0 2.0 0.00 0.00 0.00 54 1014.3
20260906185504 92 113 1.0 3.0 0.00 0.00 0.00 56 1014.3
20260906185004 93 113 1.0 3.0 0.00 0.00 0.00 55 1014.4
20260906184504 92 113 1.0 3.0 0.00 0.00 0.00 57 1014.4
20260906183504 91 114 1.0 3.0 0.00 0.00 0.00 60 1014.5
20260906183003 91 115 1.0 2.0 0.00 0.00 0.00 63 1014.6
20260906182504 90 0 0.0 2.0 0.00 0.00 0.00 67 1014.6
20260906182004 89 114 1.0 4.0 0.00 0.00 0.00 67 1014.6
20260906181504 88 115 1.0 4.0 0.00 0.00 0.00 67 1014.8
20260906181003 88 0 0.0 3.0 0.00 0.00 0.00 70 1015.0
20260906180004 87 0 0.0 2.0 0.00 0.00 0.00 71 1015.1
20260906175004 87 0 0.0 2.0 0.00 0.00 0.00 70 1015.4
20260906174503 87 0 0.0 2.0 0.00 0.00 0.00 70 1015.5
20260906174004 87 0 0.0 2.0 0.00 0.00 0.00 71 1015.5
20260906173504 87 115 1.0 3.0 0.00 0.00 0.00 71 1015.5
20260906173005 86 115 1.0 3.0 0.00 0.00 0.00 71 1015.7
20260906172004 86 0 0.0 3.0 0.00 0.00 0.00 73 1015.8
20260906171504 86 0 0.0 3.0 0.00 0.00 0.00 75 1016.0
20260906170504 86 114 1.0 3.0 0.00 0.00 0.00 75 1016.1
20260906170004 86 114 1.0 3.0 0.00 0.00 0.00 76 1016.2
20260906165504 85 114 1.0 3.0 0.00 0.00 0.00 76 1016.3
20260906165003 85 115 1.0 3.0 0.00 0.00 0.00 76 1016.2
20260906164504 85 114 1.0 4.0 0.00 0.00 0.00 76 1016.3
20260906163504 86 0 0.0 3.0 0.00 0.00 0.00 76 1016.4
20260906163004 86 122 1.0 7.0 0.00 0.00 0.00 76 1016.3
20260906162504 86 127 1.0 7.0 0.00 0.00 0.00 76 1016.3
20260906162004 86 0 0.0 4.0 0.00 0.00 0.00 77 1016.2
20260906161503 86 0 0.0 4.0 0.00 0.00 0.00 76 1016.2
20260906161004 86 152 1.0 4.0 0.00 0.00 0.00 77 1016.2
20260906160004 86 182 1.0 4.0 0.00 0.00 0.00 73 1016.1
20260906155504 86 181 1.0 2.0 0.00 0.00 0.00 73 1016.0
20260906154504 85 0 0.0 2.0 0.00 0.00 0.00 76 1016.0
20260906154004 85 0 0.0 3.0 0.00 0.00 0.00 76 1016.0
20260906153004 84 0 0.0 1.0 0.00 0.00 0.00 78 1015.8
20260906152504 84 0 0.0 1.0 0.00 0.00 0.00 79 1015.7
20260906152004 83 0 0.0 1.0 0.00 0.00 0.00 78 1015.6
20260906151504 83 0 0.0 1.0 0.00 0.00 0.00 79 1015.7
20260906151004 83 0 0.0 1.0 0.00 0.00 0.00 80 1015.6
20260906150504 83 0 0.0 0.0 0.00 0.00 0.00 80 1015.7
20260906150004 82 0 0.0 1.0 0.00 0.00 0.00 80 1015.7
20260906145504 82 0 0.0 1.0 0.00 0.00 0.00 80 1015.5
20260906145004 82 0 0.0 1.0 0.00 0.00 0.00 81 1015.6
20260906144504 82 0 0.0 0.0 0.00 0.00 0.00 81 1015.5
20260906144004 82 0 0.0 2.0 0.00 0.00 0.00 82 1015.5
20260906143504 82 0 0.0 2.0 0.00 0.00 0.00 82 1015.6
20260906143004 82 0 0.0 3.0 0.00 0.00 0.00 82 1015.6
20260906142503 81 0 0.0 3.0 0.00 0.00 0.00 83 1015.5
20260906142004 81 0 0.0 1.0 0.00 0.00 0.00 83 1015.5
20260906141504 81 0 0.0 2.0 0.00 0.00 0.00 83 1015.5
20260906141004 81 0 0.0 2.0 0.00 0.00 0.00 83 1015.4
20260906140004 81 0 0.0 1.0 0.00 0.00 0.00 83 1015.3
20260906135504 80 0 0.0 1.0 0.00 0.00 0.00 83 1015.2
20260906135004 80 0 0.0 1.0 0.00 0.00 0.00 83 1015.2
20260906134503 80 0 0.0 1.0 0.00 0.00 0.00 84 1015.2
20260906134004 80 0 0.0 0.0 0.00 0.00 0.00 84 1015.1
20260906133504 80 0 0.0 0.0 0.00 0.00 0.00 84 1015.1
20260906133003 80 0 0.0 0.0 0.00 0.00 0.00 84 1015.1
20260906132504 80 0 0.0 0.0 0.00 0.00 0.00 84 1015.1
20260906132004 80 0 0.0 0.0 0.00 0.00 0.00 85 1014.9
20260906131504 80 0 0.0 0.0 0.00 0.00 0.00 85 1014.8
20260906131003 79 0 0.0 0.0 0.00 0.00 0.00 85 1014.8
20260906130004 79 0 0.0 0.0 0.00 0.00 0.00 86 1014.8
20260906125004 78 0 0.0 0.0 0.00 0.00 0.00 87 1014.7
20260906124503 78 0 0.0 0.0 0.00 0.00 0.00 87 1014.6
20260906124004 78 0 0.0 0.0 0.00 0.00 0.00 87 1014.4
20260906122503 78 0 0.0 0.0 0.00 0.00 0.00 86 1014.2
20260906122004 78 0 0.0 0.0 0.00 0.00 0.00 86 1014.1
20260906121504 78 0 0.0 0.0 0.00 0.00 0.00 86 1014.0
20260906121004 78 0 0.0 0.0 0.00 0.00 0.00 86 1013.9
20260906120504 78 0 0.0 0.0 0.00 0.00 0.00 85 1013.9
20260906120004 78 0 0.0 0.0 0.00 0.00 0.00 86 1013.7
20260906115504 78 0 0.0 0.0 0.00 0.00 0.00 86 1013.7
20260906115003 78 0 0.0 0.0 0.00 0.00 0.00 85 1013.6
20260906114504 78 0 0.0 0.0 0.00 0.00 0.00 85 1013.5
20260906114004 79 0 0.0 0.0 0.00 0.00 0.00 85 1013.5
20260906113503 79 0 0.0 0.0 0.00 0.00 0.00 84 1013.3
20260906112504 79 0 0.0 0.0 0.00 0.00 0.00 84 1013.1
20260906112004 79 0 0.0 0.0 0.00 0.00 0.00 84 1013.1
20260906111004 79 0 0.0 0.0 0.00 0.00 0.00 84 1013.1
20260906110004 79 0 0.0 0.0 0.00 0.00 0.00 83 1013.1
20260906105504 79 0 0.0 0.0 0.00 0.00 0.00 83 1013.2
20260906105004 80 0 0.0 0.0 0.00 0.00 0.00 83 1013.2
20260906104503 80 0 0.0 0.0 0.00 0.00 0.00 83 1013.1
20260906104004 80 0 0.0 1.0 0.00 0.00 0.00 83 1013.1
20260906103504 80 0 0.0 1.0 0.00 0.00 0.00 83 1013.1
20260906103004 80 0 0.0 0.0 0.00 0.00 0.00 83 1013.1
20260906102004 80 0 0.0 0.0 0.00 0.00 0.00 83 1013.0
20260906101504 80 0 0.0 0.0 0.00 0.00 0.00 83 1012.8
20260906101004 80 0 0.0 1.0 0.00 0.00 0.00 82 1012.8
20260906100503 80 0 0.0 1.0 0.00 0.00 0.00 82 1012.8
20260906100004 80 0 0.0 1.0 0.00 0.00 0.00 82 1012.9
20260906095004 80 0 0.0 4.0 0.00 0.00 0.00 82 1013.0
20260906094504 80 0 0.0 4.0 0.00 0.00 0.00 82 1013.1
20260906094003 80 0 0.0 4.0 0.00 0.00 0.00 82 1013.1
20260906093004 80 0 0.0 6.0 0.00 0.00 0.00 81 1013.0
20260906092504 80 0 0.0 3.0 0.00 0.00 0.00 81 1012.9
20260906092004 80 0 0.0 3.0 0.00 0.00 0.00 81 1012.9
20260906091504 80 0 0.0 3.0 0.00 0.00 0.00 81 1012.9
20260906091004 80 0 0.0 3.0 0.00 0.00 0.00 81 1012.9
20260906090504 81 0 0.0 0.0 0.00 0.00 0.00 80 1012.9
20260906090003 81 0 0.0 0.0 0.00 0.00 0.00 80 1013.0
20260906085504 81 0 0.0 5.0 0.00 0.00 0.00 80 1012.9
20260906085004 81 0 0.0 5.0 0.00 0.00 0.00 80 1012.9
20260906084503 81 0 0.0 2.0 0.00 0.00 0.00 80 1013.0
20260906084003 81 0 0.0 3.0 0.00 0.00 0.00 79 1013.0
20260906083504 81 201 1.0 3.0 0.00 0.00 0.00 79 1013.0
20260906083004 82 204 1.0 3.0 0.00 0.00 0.00 79 1013.0
20260906082503 82 204 1.0 2.0 0.00 0.00 0.00 79 1012.9
20260906082003 82 203 1.0 4.0 0.00 0.00 0.00 78 1012.9
20260906081504 82 205 1.0 5.0 0.00 0.00 0.00 78 1013.0
20260906081004 82 215 1.0 5.0 0.00 0.00 0.00 78 1013.1
20260906080504 82 224 1.0 3.0 0.00 0.00 0.00 78 1013.0
20260906080004 82 0 0.0 3.0 0.00 0.00 0.00 78 1013.1
20260906075504 82 0 0.0 3.0 0.00 0.00 0.00 78 1013.2
20260906075004 82 0 0.0 3.0 0.00 0.00 0.00 78 1013.3
20260906074503 82 0 0.0 4.0 0.00 0.00 0.00 78 1013.3
20260906074004 82 0 0.0 4.0 0.00 0.00 0.00 77 1013.4
20260906073504 82 0 0.0 3.0 0.00 0.00 0.00 77 1013.4
20260906073003 83 0 0.0 2.0 0.00 0.00 0.00 77 1013.5
20260906072504 83 0 0.0 3.0 0.00 0.00 0.00 77 1013.5
20260906072004 83 253 1.0 4.0 0.00 0.00 0.00 77 1013.6
20260906071504 83 251 1.0 5.0 0.00 0.00 0.00 77 1013.6
20260906071003 83 237 1.0 5.0 0.00 0.00 0.00 76 1013.7
20260906070504 83 0 0.0 4.0 0.00 0.00 0.00 76 1013.7
20260906065003 83 0 0.0 5.0 0.00 0.00 0.00 76 1013.7
20260906064004 83 0 0.0 3.0 0.00 0.00 0.00 76 1013.9
20260906063504 84 207 1.0 4.0 0.00 0.00 0.00 76 1014.0
20260906063003 84 207 1.0 6.0 0.00 0.00 0.00 76 1014.0
20260906062504 84 206 1.0 7.0 0.00 0.00 0.00 75 1014.0
20260906062004 84 212 1.0 7.0 0.00 0.00 0.00 75 1014.1
20260906061503 84 227 1.0 6.0 0.00 0.00 0.00 75 1014.1
20260906061003 84 237 1.0 4.0 0.00 0.00 0.00 75 1014.1
20260906060504 84 0 0.0 3.0 0.00 0.00 0.00 74 1014.2
20260906055503 84 217 1.0 6.0 0.00 0.00 0.00 74 1014.1
20260906055003 84 235 1.0 5.0 0.00 0.00 0.00 74 1014.0
20260906054504 84 241 1.0 3.0 0.00 0.00 0.00 74 1014.1
20260906053503 84 0 0.0 3.0 0.00 0.00 0.00 73 1014.0
20260906053003 84 0 0.0 4.0 0.00 0.00 0.00 73 1014.0
20260906052504 85 242 1.0 4.0 0.00 0.00 0.00 73 1013.9
20260906052004 85 243 1.0 4.0 0.00 0.00 0.00 73 1013.9
20260906051503 85 240 1.0 6.0 0.00 0.00 0.00 73 1013.9
20260906051004 85 194 1.0 6.0 0.00 0.00 0.00 73 1014.1
20260906050504 84 0 0.0 3.0 0.00 0.00 0.00 73 1014.2
20260906045504 84 0 0.0 2.0 0.00 0.00 0.00 73 1014.2
20260906045003 84 0 0.0 2.0 0.00 0.00 0.00 73 1014.2
20260906044503 84 0 0.0 5.0 0.00 0.00 0.00 73 1014.3
20260906043504 84 0 0.0 2.0 0.00 0.00 0.00 72 1014.2
20260906043003 84 0 0.0 2.0 0.00 0.00 0.00 72 1014.1
20260906042003 84 0 0.0 1.0 0.00 0.00 0.00 71 1014.1
20260906041504 84 0 0.0 3.0 0.00 0.00 0.00 71 1013.9
20260906041004 84 103 1.0 3.0 0.00 0.00 0.00 71 1013.9
20260906035504 85 95 1.0 3.0 0.00 0.00 0.00 69 1014.1
20260906035004 85 88 1.0 6.0 0.00 0.00 0.00 69 1014.1
20260906034504 85 89 1.0 6.0 0.00 0.00 0.00 68 1014.1
20260906034003 85 0 0.0 5.0 0.00 0.00 0.00 68 1014.1
20260906033503 86 0 0.0 3.0 0.00 0.00 0.00 67 1014.1
20260906033004 86 89 1.0 5.0 0.00 0.00 0.00 67 1014.0
20260906032504 86 91 2.0 6.0 0.00 0.00 0.00 66 1013.9
20260906032003 86 90 2.0 6.0 0.00 0.00 0.00 66 1013.8
20260906031504 86 81 2.0 6.0 0.00 0.00 0.00 65 1013.7
20260906031004 87 89 2.0 6.0 0.00 0.00 0.00 65 1013.6
20260906030504 87 99 2.0 6.0 0.00 0.00 0.00 64 1013.6
20260906025504 87 101 3.0 9.0 0.00 0.00 0.00 63 1013.5
20260906025004 88 100 2.0 9.0 0.00 0.00 0.00 63 1013.3
20260906024504 88 95 2.0 8.0 0.00 0.00 0.00 62 1013.2
20260906024004 88 94 3.0 10.0 0.00 0.00 0.00 62 1013.1
20260906023503 88 99 3.0 10.0 0.00 0.00 0.00 61 1013.1
20260906023003 89 94 3.0 7.0 0.00 0.00 0.00 60 1012.9
20260906022504 89 90 2.0 7.0 0.00 0.00 0.00 60 1012.8
20260906022004 89 94 2.0 7.0 0.00 0.00 0.00 59 1012.5
20260906021503 89 102 3.0 9.0 0.00 0.00 0.00 59 1012.4
20260906020504 89 100 1.0 7.0 0.00 0.00 0.00 59 1012.3
20260906020003 90 103 2.0 7.0 0.00 0.00 0.00 59 1012.3
20260906015503 90 110 2.0 8.0 0.00 0.00 0.00 58 1012.2
20260906015004 90 111 2.0 8.0 0.00 0.00 0.00 58 1012.0
20260906014003 90 97 3.0 7.0 0.00 0.00 0.00 58 1012.0
20260906013504 90 104 3.0 10.0 0.00 0.00 0.00 57 1012.1
20260906013004 91 106 3.0 10.0 0.00 0.00 0.00 57 1012.0
20260906012504 91 96 3.0 9.0 0.00 0.00 0.00 57 1012.0
20260906012003 91 96 3.0 9.0 0.00 0.00 0.00 56 1011.9
20260906011504 91 97 4.0 10.0 0.00 0.00 0.00 56 1012.0
20260906011004 92 94 3.0 10.0 0.00 0.00 0.00 55 1011.9
20260906010503 92 94 3.0 9.0 0.00 0.00 0.00 54 1011.8
20260906010004 92 95 2.0 9.0 0.00 0.00 0.00 53 1011.7
20260906005503 93 102 2.0 9.0 0.00 0.00 0.00 52 1011.8
20260906005003 93 103 2.0 9.0 0.00 0.00 0.00 51 1011.7
20260906004504 93 93 2.0 7.0 0.00 0.00 0.00 50 1011.7
20260906004004 94 94 2.0 7.0 0.00 0.00 0.00 49 1011.8
20260906003503 94 103 3.0 9.0 0.00 0.00 0.00 49 1011.7
20260906003003 94 97 3.0 9.0 0.00 0.00 0.00 48 1011.7
20260906002504 95 90 2.0 7.0 0.00 0.00 0.00 49 1011.6
20260906002004 95 97 2.0 7.0 0.00 0.00 0.00 48 1011.5
20260906001503 95 108 2.0 7.0 0.00 0.00 0.00 46 1011.4
20260906001003 95 120 1.0 4.0 0.00 0.00 0.00 45 1011.5
20260906000504 96 120 1.0 4.0 0.00 0.00 0.00 45 1011.5
20260906000004 96 111 2.0 7.0 0.00 0.00 0.00 44 1011.4
20260905235503 96 109 1.0 7.0 0.00 0.00 0.00 44 1011.3